Location: Chequamegon National Forest
(46.1070°N, 90.8420°W)
Time: 10:14:03
(UTC-05:00)

ISS - All Passes

Search period start: 01 July 2015 00:00
Search period end: 11 July 2015 00:00
Orbit: 398 x 403 km, 51.6° (Epoch: 01 July)

Date Brightness Start Highest point End Pass type
(mag) Time Alt. Az. Time Alt. Az. Time Alt. Az.
01 Jul - 09:27:59 10° S 09:30:22 19° SE 09:32:49 10° E daylight
01 Jul - 11:03:15 10° WSW 11:06:30 72° NNW 11:09:45 10° ENE daylight
01 Jul - 12:40:19 10° WNW 12:43:15 30° N 12:46:11 10° ENE daylight
01 Jul - 14:17:05 10° NW 14:20:10 38° NNE 14:23:13 10° E daylight
01 Jul - 15:53:28 10° WNW 15:56:39 54° SSW 15:59:50 10° SE daylight
02 Jul - 08:36:18 10° SSE 08:37:07 11° SE 08:38:03 10° ESE daylight
02 Jul - 10:09:48 10° SW 10:13:02 69° SSE 10:16:16 10° ENE daylight
02 Jul - 11:46:35 10° W 11:49:36 35° NNW 11:52:38 10° ENE daylight
02 Jul - 13:23:34 10° WNW 13:26:32 31° N 13:29:30 10° ENE daylight
02 Jul - 14:59:57 10° WNW 15:03:13 87° NNE 15:06:27 10° ESE daylight
02 Jul - 16:37:12 10° W 16:39:15 15° SW 16:41:12 10° S daylight
03 Jul - 09:16:34 10° SSW 09:19:36 38° SE 09:22:40 10° ENE daylight
03 Jul - 10:52:51 10° W 10:56:00 45° NNW 10:59:08 10° ENE daylight
03 Jul - 12:29:58 10° WNW 12:32:52 29° N 12:35:47 10° ENE daylight
03 Jul - 14:06:29 10° WNW 14:09:41 56° NNE 14:12:53 10° ESE daylight
03 Jul - 15:43:07 10° W 15:45:56 27° SW 15:48:43 10° SSE daylight
04 Jul - 08:23:41 10° S 08:26:15 22° SE 08:28:52 10° E daylight
04 Jul - 09:59:11 10° WSW 10:02:26 66° NNW 10:05:40 10° ENE daylight
04 Jul - 11:36:16 10° WNW 11:39:11 30° N 11:42:07 10° ENE daylight
04 Jul - 13:12:59 10° WNW 13:16:05 40° NNE 13:19:10 10° E daylight
04 Jul - 14:49:24 10° WNW 14:52:33 48° SW 14:55:40 10° SE daylight
05 Jul - 07:31:33 10° SSE 07:32:57 12° SE 07:34:26 10° ESE daylight
05 Jul - 09:05:39 10° SW 09:08:53 77° SSE 09:12:09 10° ENE daylight
05 Jul - 10:42:30 10° WNW 10:45:31 33° N 10:48:31 10° ENE daylight
05 Jul - 12:19:27 10° WNW 12:22:26 32° N 12:25:25 10° ENE daylight
05 Jul - 13:55:49 10° WNW 13:59:04 84° SSW 14:02:19 10° ESE daylight
05 Jul - 15:33:19 10° WSW 15:35:04 14° SW 15:36:43 10° SSW daylight
06 Jul - 08:12:20 10° SW 08:15:25 43° SE 08:18:32 10° ENE daylight
06 Jul - 09:48:44 10° W 09:51:51 42° NNW 09:54:58 10° ENE daylight
06 Jul - 11:25:49 10° WNW 11:28:44 29° N 11:31:39 10° ENE daylight
06 Jul - 13:02:18 10° WNW 13:05:32 61° NNE 13:08:45 10° ESE daylight
06 Jul - 14:39:02 10° W 14:41:44 24° SW 14:44:23 10° SSE daylight
07 Jul - 07:19:19 10° SSW 07:22:01 25° SE 07:24:45 10° E daylight
07 Jul - 08:55:01 10° WSW 08:58:13 60° NNW 09:01:27 10° ENE daylight
07 Jul - 10:32:06 10° WNW 10:35:01 29° N 10:37:56 10° ENE daylight
07 Jul - 12:08:47 10° WNW 12:11:54 42° NNE 12:15:01 10° E daylight
07 Jul - 13:45:13 10° WNW 13:48:19 42° SW 13:51:23 10° SE daylight
08 Jul - 06:26:53 10° SSE 06:28:39 14° SE 06:30:30 10° E daylight
08 Jul - 08:01:24 10° WSW 08:04:38 86° SSE 08:07:55 10° ENE daylight
08 Jul - 09:38:19 10° WNW 09:41:18 32° N 09:44:17 10° ENE daylight
08 Jul - 11:15:13 10° WNW 11:18:13 34° N 11:21:14 10° ENE daylight
08 Jul - 12:51:35 10° WNW 12:54:50 75° SSW 12:58:03 10° SE daylight
08 Jul - 14:29:24 10° WSW 14:30:46 12° SW 14:32:01 10° SSW daylight
09 Jul - 07:07:58 10° SW 07:11:07 49° SE 07:14:17 10° ENE daylight
09 Jul - 08:44:30 10° W 08:47:36 39° NNW 08:50:41 10° NE daylight
09 Jul - 10:21:34 10° WNW 10:24:29 30° N 10:27:25 10° ENE daylight
09 Jul - 11:58:01 10° WNW 12:01:15 67° NNE 12:04:29 10° ESE daylight
09 Jul - 13:34:50 10° W 13:37:24 21° SW 13:39:55 10° S daylight
10 Jul - 06:14:50 10° SSW 06:17:40 28° SE 06:20:31 10° E daylight
10 Jul - 07:50:43 10° W 07:53:55 55° NNW 07:57:08 10° ENE daylight
10 Jul - 09:27:49 10° WNW 09:30:44 29° N 09:33:39 10° ENE daylight
10 Jul - 11:04:27 10° WNW 11:07:36 45° NNE 11:10:44 10° E daylight
10 Jul - 12:40:55 10° WNW 12:43:58 37° SW 12:46:58 10° SSE daylight
